Roanoke, VA

8:38 PM EDT on October 22, 2019 (GMT -0400)
Roanoke Regional-Woodrum

Weather History for KROA - August, 2019

Change the Weather History Date:

Sunday, August 25, 2019

  Actual Average Record
Temperature  
Mean Temperature 69 °F 74 °F  
Max Temperature 76 °F 85 °F 100 °F (2007)
Min Temperature 62 °F 64 °F 48 °F (1925)
Degree Days  
Heating Degree Days 0 0  
Month to date heating degree days 0 0  
Since 1 June heating degree days 0 11  
Since 1 July heating degree days 0 0  
Cooling Degree Days 4 10  
Month to date cooling degree days 335 269  
Year to date cooling degree days 1318 992  
Since 1 June cooling degree days 1039 876  
Growing Degree Days 18 (Base 50)    
Moisture  
Dew Point 55 °F    
Average Humidity 71    
Maximum Humidity 93    
Minimum Humidity 49    
Precipitation  
Precipitation 0.00 in 0.12 in 2.80 in (1937)
Month to date precipitation 2.97 2.84  
Year to date precipitation 30.54 27.41  
Snow  
Snow 0.00 in - - ()
Month to date snowfall 0.0  
Since 1 June snowfall T  
Since 1 July snowfall T  
Snow Depth 0.00 in    
Sea Level Pressure  
Sea Level Pressure 30.18 in    
Wind  
Wind Speed 6 mph (NE)    
Max Wind Speed 15 mph    
Max Gust Speed 19 mph    
Visibility 10 miles    
Events      
T = Trace of Precipitation, MM = Missing Value Source: NWS Daily Summary

Daily Weather History Graph

Daily Weather History Graph

Search for Another Location

Airport or City:

Astronomy

Aug. 25, 2019 Rise Set
Actual Time 6:44 AM EDT 7:59 PM EDT
Civil Twilight 6:17 AM EDT 8:26 PM EDT
Nautical Twilight 5:44 AM EDT 8:58 PM EDT
Astronomical Twilight 5:11 AM EDT 9:32 PM EDT
Moon 1:21 AM EDT (8/25) 4:13 PM EDT (8/25)
Length of Visible Light 14h 08m
Length of Day
13h 14m
Waning Crescent, 29% of the Moon is Illuminated
Aug 25
Waning Crescent
Aug 30
New
Sep 5
First Quarter
Sep 14
Full
Sep 21
Last Quarter

Hourly Weather History & Observations

Time (EDT) Temp. Dew Point Humidity Pressure Visibility Wind Dir Wind Speed Gust Speed Precip Events Conditions
12:54 AM 64.0 °F 59.0 °F 84% 30.21 in 10.0 mi Calm Calm - N/A   Scattered Clouds
1:54 AM 62.1 °F 60.1 °F 93% 30.20 in 10.0 mi Calm Calm - N/A   Overcast
2:54 AM 63.0 °F 57.9 °F 84% 30.18 in 10.0 mi ENE 4.6 mph - N/A   Overcast
3:54 AM 63.0 °F 57.9 °F 84% 30.18 in 10.0 mi NNE 6.9 mph - N/A   Overcast
4:54 AM 62.1 °F 55.9 °F 80% 30.19 in 10.0 mi North 8.1 mph - N/A   Overcast
5:54 AM 62.1 °F 55.9 °F 80% 30.18 in 10.0 mi NNE 9.2 mph - N/A   Mostly Cloudy
6:10 AM 62.1 °F 55.0 °F 78% 30.21 in 10.0 mi NNE 9.2 mph - N/A   Mostly Cloudy
6:54 AM 62.1 °F 55.0 °F 78% 30.19 in 10.0 mi NNE 10.4 mph - N/A   Mostly Cloudy
7:54 AM 62.1 °F 55.9 °F 80% 30.21 in 10.0 mi NNE 9.2 mph - N/A   Mostly Cloudy
8:54 AM 64.9 °F 55.9 °F 73% 30.22 in 10.0 mi NNE 11.5 mph - N/A   Scattered Clouds
9:54 AM 66.9 °F 55.9 °F 68% 30.22 in 10.0 mi NNE 6.9 mph - N/A   Scattered Clouds
10:54 AM 70.0 °F 57.0 °F 63% 30.22 in 10.0 mi NE 8.1 mph - N/A   Scattered Clouds
11:54 AM 71.1 °F 55.9 °F 59% 30.20 in 10.0 mi East 3.5 mph - N/A   Mostly Cloudy
12:54 PM 72.0 °F 55.0 °F 55% 30.18 in 10.0 mi ENE 6.9 mph - N/A   Mostly Cloudy
1:54 PM 73.0 °F 54.0 °F 51% 30.17 in 10.0 mi East 8.1 mph - N/A   Mostly Cloudy
2:54 PM 73.9 °F 54.0 °F 50% 30.17 in 10.0 mi ESE 11.5 mph - N/A   Mostly Cloudy
3:54 PM 73.9 °F 53.1 °F 48% 30.15 in 10.0 mi East 9.2 mph - N/A   Mostly Cloudy
4:54 PM 73.9 °F 54.0 °F 50% 30.15 in 10.0 mi ENE 5.8 mph - N/A   Mostly Cloudy
5:54 PM 73.0 °F 53.1 °F 49% 30.15 in 10.0 mi East 8.1 mph - N/A   Mostly Cloudy
6:54 PM 72.0 °F 53.1 °F 51% 30.14 in 10.0 mi East 9.2 mph - N/A   Overcast
7:54 PM 70.0 °F 51.1 °F 51% 30.15 in 10.0 mi East 6.9 mph - N/A   Scattered Clouds
8:54 PM 68.0 °F 53.1 °F 59% 30.16 in 10.0 mi NE 3.5 mph - N/A   Partly Cloudy
9:54 PM 66.0 °F 54.0 °F 65% 30.18 in 10.0 mi Calm Calm - N/A   Mostly Cloudy
10:54 PM 64.0 °F 55.9 °F 75% 30.19 in 10.0 mi Calm Calm - N/A   Mostly Cloudy
11:54 PM 64.9 °F 55.9 °F 73% 30.18 in 10.0 mi Calm Calm - N/A   Mostly Cloudy